When you browse on this site, cookies collect data to enhance your experience and personalize the content and advertising you see.
Visit our Privacy Policy to learn more. By continuing to use the site, you agree to this use of cookies and data.
  • In Österreich
  • Länderverzeichnis
  • Für 7 Tage
  • Wassertemperatur
  • Wetterkarte
  • News
  • Widgets
  • user-avatar
    Anmelden

    Stündliche Wetter Armawir

    Heute, 31 Mai, Sonntag

    Zeit Temperatur Niederschläge Wind Luftdruck Luftfeuchtigkeit
    00:00 +19°C° 0 mm 3 m/S 687 mmHg 35%
    01:00 +19°C° 0 mm 3 m/S 687 mmHg 35%
    02:00 +18°C° 0 mm 3 m/S 687 mmHg 35%
    03:00 +17°C° 0 mm 3 m/S 687 mmHg 35%
    04:00 +18°C° 0 mm 3 m/S 687 mmHg 36%
    05:00 +18°C° 0 mm 3 m/S 688 mmHg 38%
    06:00 +18°C° 0 mm 3 m/S 688 mmHg 40%
    07:00 +20°C° 0 mm 3 m/S 688 mmHg 36%
    08:00 +22°C° 0 mm 3 m/S 688 mmHg 32%
    09:00 +25°C° 0 mm 3 m/S 688 mmHg 29%
    10:00 +26°C° 0 mm 3 m/S 688 mmHg 26%
    11:00 +27°C° 0 mm 3 m/S 688 mmHg 22%
    12:00 +28°C° 0 mm 2 m/S 688 mmHg 19%
    13:00 +29°C° 0 mm 2 m/S 688 mmHg 19%
    14:00 +30°C° 0 mm 1 m/S 688 mmHg 18%
    15:00 +30°C° 0 mm 1 m/S 687 mmHg 17%
    16:00 +30°C° 0 mm 1 m/S 687 mmHg 20%
    17:00 +30°C° 0 mm 1 m/S 687 mmHg 23%
    18:00 +29°C° 0 mm 1 m/S 687 mmHg 26%
    19:00 +27°C° 0 mm 1 m/S 687 mmHg 27%
    20:00 +24°C° 0 mm 1 m/S 687 mmHg 28%
    21:00 +22°C° 0 mm 1 m/S 687 mmHg 29%
    22:00 +21°C° 0 mm 1 m/S 686 mmHg 31%
    23:00 +21°C° 0 mm 1 m/S 686 mmHg 33%

    Morgen, 1 Juni, Montag

    Zeit Temperatur Niederschläge Wind Luftdruck Luftfeuchtigkeit
    00:00 +19°C° 0 mm 2 m/S 686 mmHg 35%
    01:00 +18°C° 0 mm 2 m/S 686 mmHg 37%
    02:00 +18°C° 0 mm 2 m/S 686 mmHg 39%
    03:00 +17°C° 0 mm 2 m/S 685 mmHg 41%
    04:00 +19°C° 0 mm 1 m/S 685 mmHg 43%
    05:00 +19°C° 0 mm 1 m/S 686 mmHg 46%
    06:00 +20°C° 0 mm 1 m/S 686 mmHg 48%
    07:00 +22°C° 0 mm 1 m/S 686 mmHg 42%
    08:00 +24°C° 0 mm 1 m/S 686 mmHg 36%
    09:00 +26°C° 0 mm 1 m/S 686 mmHg 30%
    10:00 +27°C° 0 mm 1 m/S 686 mmHg 27%
    11:00 +28°C° 0 mm 2 m/S 686 mmHg 25%
    12:00 +30°C° 0 mm 2 m/S 686 mmHg 22%
    13:00 +30°C° 0 mm 2 m/S 686 mmHg 21%
    14:00 +31°C° 0 mm 3 m/S 686 mmHg 20%
    15:00 +33°C° 0 mm 3 m/S 686 mmHg 19%
    16:00 +31°C° 0 mm 3 m/S 685 mmHg 23%
    17:00 +30°C° 0 mm 4 m/S 685 mmHg 26%
    18:00 +29°C° 0 mm 4 m/S 685 mmHg 30%
    19:00 +27°C° 0 mm 4 m/S 685 mmHg 31%
    20:00 +25°C° 0 mm 3 m/S 685 mmHg 32%
    21:00 +24°C° 0 mm 3 m/S 685 mmHg 33%
    22:00 +23°C° 0 mm 2 m/S 685 mmHg 35%
    23:00 +21°C° 0 mm 2 m/S 684 mmHg 37%

    übermorgen, 2 Juni, Dienstag

    Zeit Temperatur Niederschläge Wind Luftdruck Luftfeuchtigkeit
    00:00 +21°C° 0 mm 1 m/S 684 mmHg 39%
    01:00 +20°C° 0 mm 1 m/S 684 mmHg 40%
    02:00 +19°C° 0 mm 1 m/S 684 mmHg 42%
    03:00 +19°C° 0 mm 1 m/S 683 mmHg 44%
    04:00 +20°C° 0 mm 1 m/S 684 mmHg 45%
    05:00 +20°C° 0 mm 1 m/S 684 mmHg 46%
    06:00 +21°C° 0 mm 1 m/S 684 mmHg 47%
    07:00 +23°C° 0 mm 1 m/S 684 mmHg 41%
    08:00 +25°C° 0 mm 2 m/S 684 mmHg 36%
    09:00 +27°C° 0 mm 2 m/S 684 mmHg 30%
    10:00 +28°C° 0 mm 2 m/S 684 mmHg 27%
    11:00 +30°C° 0 mm 2 m/S 684 mmHg 24%
    12:00 +32°C° 0 mm 2 m/S 684 mmHg 21%
    13:00 +33°C° 0 mm 4 m/S 684 mmHg 20%
    14:00 +34°C° 0 mm 6 m/S 684 mmHg 19%
    15:00 +34°C° 0 mm 8 m/S 684 mmHg 18%
    16:00 +33°C° 0 mm 7 m/S 684 mmHg 20%
    17:00 +32°C° 0 mm 6 m/S 684 mmHg 23%
    18:00 +30°C° 0 mm 5 m/S 684 mmHg 25%
    19:00 +27°C° 0 mm 4 m/S 684 mmHg 26%
    20:00 +25°C° 0 mm 4 m/S 684 mmHg 27%
    21:00 +22°C° 0 mm 4 m/S 684 mmHg 28%
    22:00 +21°C° 0 mm 3 m/S 684 mmHg 30%
    23:00 +20°C° 0 mm 3 m/S 684 mmHg 32%

    3 Juni, Mittwoch

    Zeit Temperatur Niederschläge Wind Luftdruck Luftfeuchtigkeit
    00:00 +19°C° 0 mm 2 m/S 684 mmHg 34%
    01:00 +18°C° 0 mm 2 m/S 684 mmHg 35%
    02:00 +19°C° 0 mm 1 m/S 684 mmHg 36%
    03:00 +19°C° 0 mm 1 m/S 684 mmHg 37%
    04:00 +19°C° 0 mm 1 m/S 684 mmHg 39%
    05:00 +20°C° 0 mm 1 m/S 684 mmHg 41%
    06:00 +21°C° 0 mm 1 m/S 685 mmHg 43%
    07:00 +23°C° 0 mm 1 m/S 685 mmHg 38%
    08:00 +24°C° 0 mm 1 m/S 685 mmHg 33%
    09:00 +25°C° 0 mm 1 m/S 684 mmHg 29%
    10:00 +27°C° 0 mm 2 m/S 685 mmHg 28%
    11:00 +28°C° 0 mm 2 m/S 685 mmHg 27%
    12:00 +29°C° 0 mm 3 m/S 685 mmHg 27%
    13:00 +29°C° 0.1 mm 3 m/S 685 mmHg 29%
    14:00 +29°C° 0.1 mm 2 m/S 684 mmHg 31%
    15:00 +29°C° 0.1 mm 2 m/S 684 mmHg 33%
    16:00 +27°C° 0.6 mm 2 m/S 684 mmHg 40%
    17:00 +25°C° 0.6 mm 2 m/S 683 mmHg 47%
    18:00 +24°C° 0.6 mm 2 m/S 683 mmHg 54%
    19:00 +21°C° 0 mm 2 m/S 683 mmHg 57%
    20:00 +20°C° 0 mm 2 m/S 683 mmHg 61%
    21:00 +19°C° 0 mm 1 m/S 683 mmHg 65%
    22:00 +19°C° 0 mm 1 m/S 683 mmHg 64%
    23:00 +19°C° 0 mm 1 m/S 683 mmHg 64%

    4 Juni, Donnerstag

    Zeit Temperatur Niederschläge Wind Luftdruck Luftfeuchtigkeit
    00:00 +19°C° 0 mm 1 m/S 684 mmHg 63%
    01:00 +18°C° 0 mm 1 m/S 684 mmHg 63%
    02:00 +18°C° 0 mm 1 m/S 684 mmHg 62%
    03:00 +17°C° 0 mm 2 m/S 684 mmHg 62%
    04:00 +17°C° 0 mm 2 m/S 684 mmHg 59%
    05:00 +18°C° 0 mm 2 m/S 685 mmHg 57%
    06:00 +19°C° 0 mm 2 m/S 685 mmHg 55%
    07:00 +21°C° 0 mm 2 m/S 686 mmHg 48%
    08:00 +23°C° 0 mm 2 m/S 686 mmHg 41%
    09:00 +25°C° 0 mm 2 m/S 686 mmHg 34%
    10:00 +27°C° 0 mm 2 m/S 686 mmHg 30%
    11:00 +28°C° 0 mm 1 m/S 686 mmHg 26%
    12:00 +29°C° 0 mm 1 m/S 686 mmHg 22%
    13:00 +30°C° 0 mm 1 m/S 686 mmHg 22%
    14:00 +30°C° 0 mm 1 m/S 686 mmHg 21%
    15:00 +31°C° 0 mm 1 m/S 686 mmHg 20%
    16:00 +30°C° 0 mm 2 m/S 686 mmHg 22%
    17:00 +30°C° 0 mm 2 m/S 686 mmHg 25%
    18:00 +30°C° 0 mm 2 m/S 686 mmHg 27%
    19:00 +27°C° 0 mm 2 m/S 686 mmHg 29%
    20:00 +25°C° 0 mm 2 m/S 686 mmHg 31%
    21:00 +23°C° 0 mm 2 m/S 686 mmHg 33%
    22:00 +21°C° 0 mm 2 m/S 686 mmHg 32%
    23:00 +21°C° 0 mm 2 m/S 686 mmHg 32%

    5 Juni, Freitag

    Zeit Temperatur Niederschläge Wind Luftdruck Luftfeuchtigkeit
    00:00 +20°C° 0 mm 2 m/S 686 mmHg 32%
    01:00 +19°C° 0 mm 2 m/S 686 mmHg 35%
    02:00 +18°C° 0 mm 2 m/S 686 mmHg 37%
    03:00 +17°C° 0 mm 2 m/S 686 mmHg 40%
    04:00 +18°C° 0 mm 2 m/S 686 mmHg 42%
    05:00 +19°C° 0 mm 2 m/S 687 mmHg 44%
    06:00 +19°C° 0 mm 2 m/S 687 mmHg 46%
    07:00 +22°C° 0 mm 1 m/S 687 mmHg 41%
    08:00 +24°C° 0 mm 1 m/S 687 mmHg 35%
    09:00 +26°C° 0 mm 1 m/S 688 mmHg 30%
    10:00 +28°C° 0 mm 1 m/S 688 mmHg 27%
    11:00 +29°C° 0 mm 1 m/S 688 mmHg 23%
    12:00 +30°C° 0 mm 2 m/S 688 mmHg 20%
    13:00 +31°C° 0 mm 2 m/S 688 mmHg 19%
    14:00 +32°C° 0 mm 2 m/S 688 mmHg 18%
    15:00 +32°C° 0 mm 1 m/S 687 mmHg 18%
    16:00 +32°C° 0 mm 2 m/S 687 mmHg 20%
    17:00 +31°C° 0 mm 3 m/S 687 mmHg 23%
    18:00 +30°C° 0 mm 3 m/S 687 mmHg 25%
    19:00 +28°C° 0 mm 3 m/S 687 mmHg 27%
    20:00 +26°C° 0 mm 3 m/S 687 mmHg 30%
    21:00 +22°C° 0 mm 3 m/S 687 mmHg 32%
    22:00 +22°C° 0 mm 3 m/S 687 mmHg 34%
    23:00 +21°C° 0 mm 3 m/S 687 mmHg 35%
    Mehr zeigen